Simultaneous Nadir Overpasses (SNOs) Predictions

Prediction of SNOs between AQUA and NOAA-19 Satellite Orbit:

Table of predicted SNOs for the next 14.0 days since TLE Epoch: 10/14/2023
Index Date (AQUA) Time (AQUA) Lat,Lon (AQUA) SZA (AQUA ) Date (NOAA-19) Time (NOAA-19) Lat,Lon (NOAA-19) SZA (NOAA-19 ) Distance(km) Time Diff (sec)
1 10/14/2023 14:30:55 76.14, -44.94 84.28 10/14/2023 14:30:27 76.15, -44.92 84.30 1.78 28
2 10/14/2023 15:20:19 -76.20, 122.53 95.65 10/14/2023 15:21:25 -76.19, 122.48 95.65 1.53 66
3 10/16/2023 19:12:19 76.15,-115.29 85.10 10/16/2023 19:11:48 76.13,-115.30 85.08 2.38 31
4 10/16/2023 20:01:43 -76.20, 52.19 94.83 10/16/2023 20:02:45 -76.19, 52.19 94.85 1.81 62
5 10/18/2023 23:53:40 76.14, 174.42 85.89 10/18/2023 23:53:07 76.13, 174.45 85.89 1.14 33
6 10/19/2023 00:43:04 -76.19, -18.09 94.05 10/19/2023 00:44:04 -76.17, -18.15 94.07 2.81 60
7 10/21/2023 04:35:00 76.11, 104.20 86.65 10/21/2023 04:34:27 76.13, 104.16 86.67 1.99 33
8 10/21/2023 05:24:24 -76.16, -88.30 93.29 10/21/2023 05:25:23 -76.19, -88.35 93.27 3.00 59
9 10/23/2023 09:16:19 76.11, 33.90 87.43 10/23/2023 09:15:47 76.11, 33.82 87.42 2.25 32
10 10/23/2023 10:05:43 -76.16,-158.60 92.52 10/23/2023 10:06:42 -76.19,-158.60 92.49 3.45 59
11 10/25/2023 13:57:36 76.10, -36.34 88.17 10/25/2023 13:57:06 76.12, -36.40 88.20 3.17 30
12 10/25/2023 14:47:01 -76.19, 131.01 91.73 10/25/2023 14:48:01 -76.19, 131.12 91.73 2.78 60
13 10/27/2023 18:38:52 76.11,-106.66 88.93 10/27/2023 18:38:25 76.12,-106.67 88.94 1.43 27



Historial Predications of SNOs between AQUA and NOAA-19
